Miscellaneous Local Product
Issued by NWS North Platte, NE

Home | Current Version | Previous Version | Graphics & Text | Print | Product List | Glossary On
Versions: 1 2 3 4 5 6 7 8 9 10 11 12 13 14 15 16 17 18 19 20 21 22 23 24 25 26 27 28 29 30 31 32 33 34 35 36 37 38 39 40 41 42 43 44 45 46 47 48 49 50
000
AXUS43 KLBF 180010
MISLBF


WESTERN AND NORTH CENTRAL NEBRASKA HOURLY WEATHER ROUNDUP
NATIONAL WEATHER SERVICE NORTH PLATTE NE
600 PM CST WED DEC 17 2014

***STATIONS NOT REPORTING VARIABLES SUCH AS SKY/WEATHER OR
PRESSURE ARE PROVIDED BY THE NEBRASKA DEPARTMENT OF
ROADS...RAWS...AND APRS NETWORKS...AND ARE NOT UNDER
NATIONAL WEATHER SERVICE QUALITY CONTROL***

...OBSERVATIONS IN AND NEAR THE EASTERN PANHANDLE OF NEBRASKA...

CITY           SKY/WX    TMP DP  RH WIND       PRES   REMARKS
PINE RIDGE     CLOUDY    25  21  85 SW12      29.99R WCI  14
CHADRON        CLEAR     18  15  88 S3        29.99R
ALLIANCE       CLOUDY    23  21  92 S13       29.97S WCI  11
SIDNEY         CLOUDY    22  19  89 S12       29.98R FOG     WCI  10
WHITECLAY        N/A     24  20  87 S12         N/A  WCI  13
LISCO            N/A     26  22  84 SE8         N/A  WCI  18
BIG SPRINGS      N/A     23  22  94 S6          N/A  WCI  16
$$

...OBSERVATIONS IN NORTH CENTRAL NEBRASKA...

CITY           SKY/WX    TMP DP  RH WIND       PRES   REMARKS
VALENTINE      CLOUDY    22  20  92 S10       30.09S WCI  11
THEDFORD       CLOUDY    22  22  96 S8        30.09R FOG     WCI  13
AINSWORTH      CLOUDY    21  20  96 S6        30.10S FOG     WCI  13
O`NEILL        CLOUDY    21  19  94 SE3       30.19S
ORD            CLOUDY    22  19  89 SE6       30.15F WCI  14
BROKEN BOW     CLOUDY    22  20  92 SE8       30.12S WCI  12
BROWNLEE         N/A     20  18  91 CALM        N/A
SPRINGVIEW       N/A     21  18  86 SE3         N/A
BREWSTER         N/A     24  24  99 S7          N/A  WCI  16
ROSE             N/A     24  24 100 MISG        N/A
SARGENT          N/A     21  19  93 SE3         N/A
COMSTOCK         N/A     28  25  88 SE3         N/A
CHAMBERS         N/A     20  16  85 CALM        N/A
EWING            N/A     21  19  93 CALM        N/A
$$

...OBSERVATIONS IN SOUTHWEST NEBRASKA AND FAR NORTHEAST COLORADO...

CITY           SKY/WX    TMP DP  RH WIND       PRES   REMARKS
WRAY           CLOUDY   N/A N/A N/A E6        30.03R FOG
IMPERIAL       CLOUDY    24  20  84 S8        30.06R FOG     WCI  15
OGALLALA       CLOUDY    23  22  96 S6        30.05S WCI  16
NORTH PLATTE   CLOUDY    22  20  92 SE5       30.09S WCI  16
MCCOOK         CLOUDY    24  22  91 E7        30.11R FOG     WCI  16
LEXINGTON      CLOUDY    24  22  95 E6        30.13R WCI  16
PAXTON           N/A     23  22  94 S8          N/A  WCI  14
BRADY            N/A     21  19  93 CALM        N/A
GOTHENBURG       N/A     22  20  92 SE3         N/A
CALLAWAY         N/A     21  20  94 SE3         N/A
$$

...NORTH PLATTE AREA...

CITY           SKY/WX    TMP DP  RH WIND       PRES   REMARKS
AIRPORT        CLOUDY    22  20  92 SE5       30.09S WCI  16
DOWNTOWN         N/A     21  19  93 S3          N/A
$$

...SOME WEATHER OBSERVATIONS FROM AROUND THE REGION...

CITY           SKY/WX    TMP DP  RH WIND       PRES   REMARKS
DENVER         CLOUDY    33  27  78 E6        29.92R WCI  28
LARAMIE        PTCLDY    25  18  74 NE7       29.92R WCI  17
CHEYENNE       CLOUDY    36  19  50 W6        29.91R WCI  31
SCOTTSBLUFF    PTCLDY    16  14  92 E9        29.97R WCI   4
RAPID CITY     CLOUDY    23  19  85 NE9       30.01R WCI  13
PIERRE         CLOUDY    18  15  88 SE14      30.18R WCI   4
WINNER         CLOUDY    22  18  85 SE9       30.15  WCI  12
SIOUX FALLS    PTCLDY    14   9  80 NE5       30.28R WCI   6
OMAHA          CLOUDY    28  17  63 CALM      30.28S
GRAND ISLAND   MOCLDY    25  18  74 E5        30.19S WCI  19
KANSAS CITY    CLOUDY    29  21  72 E6        30.24F WCI  23
WICHITA        LGT SNOW  31  29  92 SE6       30.18R VSB 3/4 WCI  25
HAYS           CLOUDY    28  19  69 SE14      30.11S WCI  17
LIBERAL        CLOUDY    37  30  75 SE10      30.00R WCI  30
GOODLAND       FOG       24  23  96 E8        30.02S VSB 1/2 WCI  15
$$



USA.gov is the U.S. government's official web portal to all federal, state and local government web resources and services.